Regional Weather Roundup
Issued by NWS

Home | Current Version | Previous Version | Graphics & Text | Print | Product List | Glossary On
Versions: 1 2 3 4 5 6 7 8 9 10 11 12 13 14 15 16 17 18 19 20 21 22 23 24 25 26 27 28 29 30 31 32 33 34 35 36 37 38 39 40 41 42 43 44 45 46 47 48 49 50
925
ASUS45 KABQ 120310
RWRNM
NEW MEXICO REGIONAL WEATHER ROUNDUP
NATIONAL WEATHER SERVICE ALBUQUERQUE NM
800 PM MST THU FEB 11 2016

NOTE: "FAIR" MEANS FEW OR NO CLOUDS BELOW 12,000 FEET AGL WITH NO
       SIGNIFICANT WEATHER OR OBSTRUCTIONS TO VISION.

      THIS PRODUCT IS RELEASED AS TWO VERSIONS.  ONE VERSION NEAR
      THE TOP OF THE HOUR CONTAINING PRELIMINARY DATA FROM ALBUQUERQUE
      AND OTHER STATIONS.  A FINAL VERSION WITH ADDITIONAL DATA IS
      ISSUED ABOUT 10 MINUTES AFTER THE HOUR.

NMZ501-503-504-510>518-120400-
NORTHWEST PLATEAU/NORTHCENTRAL MOUNTAINS

CITY           SKY/WX    TMP DP  RH WIND       PRES   REMARKS
FARMINGTON     CLOUDY    38  22  52 NW5       30.34S WCI  34
LOS ALAMOS     PTCLDY    52  12  20 CALM      30.36R
SANTA FE       CLOUDY    44  18  35 N3        30.32R
TAOS           CLOUDY    32  19  59 N5        30.36R WCI  27
ANGEL FIRE     FAIR      27  17  64 CALM      30.39R

$$
NMZ402-403-502-505>509-120400-
WESTCENTRAL MOUNTAINS/SOUTHWEST MOUNTAINS

CITY           SKY/WX    TMP DP  RH WIND       PRES   REMARKS
GALLUP         PTCLDY    35  20  54 CALM      30.39R
GRANTS         CLEAR     36  10  33 NW8       30.40S WCI  30
SILVER CITY      N/A     50  12  22 NW14      30.31S

$$
NMZ407-409-411-412-120400-
SOUTHERN DESERTS

CITY           SKY/WX    TMP DP  RH WIND       PRES   REMARKS
LORDSBURG      FAIR      52  14  22 N5        30.25R
DEMING         CLEAR     56  12  17 W7        30.26R
LAS CRUCES     CLEAR     50  10  19 W6        30.27R
HOLLOMAN AFB   CLOUDY    50  11  20 NE7       30.23R
ALAMOGORDO     CLOUDY    52   7  16 NW5       30.24S
T OR C         CLEAR     54   9  16 CALM      30.26S

$$
NMZ519>523-120400-
CENTRAL VALLEYS/CENTRAL HIGHLANDS

CITY           SKY/WX    TMP DP  RH WIND       PRES   REMARKS
ALBUQUERQUE    CLOUDY    54  18  24 N8        30.32R
DOUBLE EAGLE   CLEAR     39  14  35 W3        30.33R
MORIARTY ARPT  FAIR      37  12  34 CALM      30.32S
CLINES CORNERS CLOUDY    37  18  46 NW15      30.30S WCI  28
BELEN          FAIR      44  12  27 N6        30.31R
SOCORRO        FAIR      49  13  23 W9        30.29R

$$
NMZ524>526-539-540-120400-
SOUTHCENTRAL MOUNTAINS

CITY           SKY/WX    TMP DP  RH WIND       PRES   REMARKS
RUIDOSO          N/A     50   0  12 NW5       30.35R

$$
NMZ527>531-120400-
NORTHEAST HIGHLANDS/NORTHEAST PLAINS

CITY           SKY/WX    TMP DP  RH WIND       PRES   REMARKS
LAS VEGAS      CLOUDY    43   9  24 NW8       30.28R
RATON          CLOUDY    38  14  37 NE8       30.24R WCI  32
CLAYTON        CLOUDY    48  15  26 W10       30.18R

$$
NMZ532>537-120400-
EASTCENTRAL PLAINS

CITY           SKY/WX    TMP DP  RH WIND       PRES   REMARKS
TUCUMCARI      CLEAR     43  13  29 CALM      30.16R
CANNON AFB     CLOUDY    48  19  31 SE5       30.19S
CLOVIS AIRPORT CLOUDY    46  18  31 SE3       30.21R

$$
NMZ028-029-538-120400-
SOUTHEAST PLAINS

CITY           SKY/WX    TMP DP  RH WIND       PRES   REMARKS
ROSWELL        CLEAR     42  19  39 SW9       30.18S
ARTESIA        CLEAR     46  23  39 SW8       30.19S
CARLSBAD       CLEAR     47  24  40 W13       30.18R
HOBBS          CLEAR     50  23  34 E3        30.21S


$$




USA.gov is the U.S. government's official web portal to all federal, state and local government web resources and services.